Find Starlink 11397

NORAD ID: 62590 Int'l Des: 2025-008 Owner: SPXS Country: US Constellation: starlink operational
LEOCIRCULAR

当前视图

正在加载3D地球...

About Starlink 11397

Starlink 11397 (NORAD 62590) is a starlink constellation satellite (v2 mini d2c) launched Jan 13, 2025 by SPXS of US. It operates in LEO, CIRCULAR orbit with a mass of 960.00 kg.

关于 Starlink 11397

正在加载描述...

即将过境

Passes for default location (London). Set your location on the main map for personalized predictions.

高度历史

Loading altitude history...

两行轨道根数

1 62590U 25008D 26170.51321911 .00151439 00000-0 11585-2 0 9991
2 62590 42.9990 231.9404 0002626 260.0555 100.0017 15.70917214 83242
Epoch: Jun 19, 2026 • Age: 23 hours

当前状态

高度 359.7 km
速度 7.70 km/s
星下点 40.83°N, 148.15°W
发射日期 Jan 13, 2025
运行时间 1.4 years
类型 internet

技术详情

分类 Payload
质量 960.00 kg
干质量 910.00 kg
总质量 960.00 kg
长度 0.30 m
直径 4.10 m
跨度 29.00 m
形状 Box + pan
制造商 SPXS
平台类型 Starlink V2MD
阶段状态 In Orbit
所有者/国家 SPXS/US

Most Searched